Pickens County Airport, SC

2:48 PM EDT on August 16, 2017 (GMT -0400)
Pickens County

Weather History for KLQK - April, 2014

Change the Weather History Date:

Wednesday, April 2, 2014

  Actual Average Record
Temperature  
Mean Temperature 62 °F -  
Max Temperature 83 °F 71 °F 83 °F (2014)
Min Temperature 40 °F 46 °F 40 °F (2014)
Degree Days  
Heating Degree Days 4    
Growing Degree Days 12 (Base 50)    
Moisture  
Dew Point 37 °F    
Average Humidity 56    
Maximum Humidity 89    
Minimum Humidity 16    
Precipitation  
Precipitation 0.00 in - - ()
Sea Level Pressure  
Sea Level Pressure 30.07 in    
Wind  
Wind Speed 12 mph (SW)    
Max Wind Speed 18 mph    
Max Gust Speed 24 mph    
Visibility 10 miles    
Events      
Averages and records for this station are not official NWS values.
T = Trace of Precipitation, MM = Missing Value Source: NWS Daily Summary

Daily Weather History Graph

Daily Weather History Graph

Search for Another Location

Airport or City:

Trip Planner

Search our weather history database for the weather conditions in past years. The results will help you decide how hot, cold, wet, or windy it might be!

Date:

Astronomy

Apr. 02, 2014 Rise Set
Actual Time 7:16 AM EDT 7:52 PM EDT
Civil Twilight 6:50 AM EDT 8:18 PM EDT
Nautical Twilight 6:21 AM EDT 8:48 PM EDT
Astronomical Twilight 5:50 AM EDT 9:18 PM EDT
Moon 9:06 AM EDT (4/2) 11:07 PM EDT (4/2)
Length of Visible Light 13h 27m
Length of Day
12h 36m
Waxing Crescent, 10% of the Moon is Illuminated
Apr 2
Waxing Crescent
Apr 7
First Quarter
Apr 15
Full
Apr 22
Last Quarter
Apr 29
New

Hourly Weather History & Observations

Time (EDT) Temp. Dew Point Humidity Pressure Visibility Wind Dir Wind Speed Gust Speed Precip Events Conditions
12:15 AM 56.7 °F 34.9 °F 44% 30.09 in 10.0 mi North - - N/A   Clear
12:35 AM 53.6 °F 36.7 °F 53% 30.09 in 10.0 mi North - - N/A   Clear
12:55 AM 53.8 °F 36.9 °F 53% 30.09 in 10.0 mi North - - N/A   Clear
1:15 AM 51.6 °F 38.3 °F 60% 30.09 in 10.0 mi North - - N/A   Clear
1:35 AM 56.7 °F 34.0 °F 42% 30.08 in 10.0 mi North - - N/A   Clear
1:55 AM 58.8 °F 33.1 °F 38% 30.08 in 10.0 mi North - - N/A   Clear
2:15 AM 57.4 °F 33.6 °F 41% 30.08 in 10.0 mi North - - N/A   Clear
2:35 AM 54.9 °F 35.1 °F 47% 30.08 in 10.0 mi North - - N/A   Clear
2:55 AM 50.9 °F 36.9 °F 59% 30.08 in 10.0 mi North - - N/A   Clear
3:15 AM 48.4 °F 37.6 °F 66% 30.08 in 10.0 mi North - - N/A   Clear
3:35 AM 47.1 °F 37.2 °F 68% 30.08 in 10.0 mi North - - N/A   Clear
3:55 AM 46.0 °F 37.6 °F 72% 30.07 in 10.0 mi North - - N/A   Clear
4:15 AM 44.4 °F 37.9 °F 78% 30.07 in 10.0 mi North - - N/A   Clear
4:35 AM 43.7 °F 38.3 °F 81% 30.07 in 10.0 mi North - - N/A   Clear
4:55 AM 43.9 °F 38.3 °F 81% 30.07 in 10.0 mi North - - N/A   Clear
5:15 AM 42.8 °F 38.1 °F 84% 30.07 in 10.0 mi North - - N/A   Clear
5:35 AM 42.4 °F 37.9 °F 84% 30.07 in 10.0 mi North - - N/A   Clear
5:55 AM 41.7 °F 37.8 °F 86% 30.07 in 10.0 mi North - - N/A   Clear
6:15 AM 41.7 °F 37.0 °F 83% 30.08 in 10.0 mi North - - N/A   Clear
6:35 AM 41.5 °F 36.7 °F 83% 30.08 in 10.0 mi North - - N/A   Clear
6:55 AM 41.2 °F 37.4 °F 86% 30.09 in 10.0 mi North - - N/A   Clear
7:15 AM 40.6 °F 37.8 °F 89% 30.09 in 10.0 mi North - - N/A   Clear
8:55 AM 48.9 °F 40.8 °F 74% 30.11 in 10.0 mi North - - N/A   Clear
9:15 AM 53.6 °F 40.8 °F 62% 30.11 in 10.0 mi North - - N/A   Clear
9:35 AM 58.5 °F 39.4 °F 49% 30.11 in 10.0 mi North - - N/A   Clear
9:55 AM 61.5 °F 39.0 °F 43% 30.12 in 10.0 mi North - - N/A   Clear
10:15 AM 63.1 °F 37.8 °F 39% 30.12 in 10.0 mi North - - N/A   Clear
10:35 AM 66.2 °F 37.9 °F 35% 30.13 in 10.0 mi North - - N/A   Clear
10:55 AM 69.3 °F 37.4 °F 31% 30.13 in 10.0 mi North - - N/A   Clear
11:15 AM 72.1 °F 37.8 °F 29% 30.13 in 10.0 mi North - - N/A   Clear
11:35 AM 74.1 °F 38.3 °F 27% 30.13 in 10.0 mi North - - N/A   Clear
11:55 AM 76.5 °F 38.5 °F 25% 30.12 in 10.0 mi North - - N/A   Clear
12:15 PM 78.3 °F 36.7 °F 22% 30.12 in 10.0 mi North - - N/A   Clear
12:55 PM 79.7 °F 34.3 °F 19% 30.10 in 10.0 mi North - - N/A   Clear
1:15 PM 81.0 °F 30.7 °F 16% 30.10 in 10.0 mi North - - N/A   Clear
1:55 PM 82.0 °F - N/A% 30.09 in 10.0 mi SSW 12.7 mph 18.4 mph N/A   Clear
2:15 PM 82.4 °F - N/A% 30.09 in 10.0 mi SW 12.7 mph 18.4 mph N/A   Clear
2:35 PM 82.4 °F - N/A% 30.08 in 10.0 mi West 6.9 mph 17.3 mph N/A   Clear
2:55 PM 83.1 °F - N/A% 30.07 in 10.0 mi South 10.4 mph 18.4 mph N/A   Clear
3:35 PM 82.9 °F - N/A% 30.06 in 10.0 mi SSW 18.4 mph 24.2 mph N/A   Clear
3:55 PM 83.3 °F - N/A% 30.05 in 10.0 mi SSW 11.5 mph 21.9 mph N/A   Clear
4:15 PM 83.3 °F - N/A% 30.04 in 10.0 mi SW 10.4 mph 19.6 mph N/A   Clear
4:35 PM 83.1 °F - N/A% 30.04 in 10.0 mi SSW 10.4 mph 19.6 mph N/A   Clear
4:55 PM 82.8 °F - N/A% 30.03 in 10.0 mi SSW 16.1 mph 21.9 mph N/A   Clear
5:15 PM 83.3 °F - N/A% 30.03 in 10.0 mi South 10.4 mph 18.4 mph N/A   Clear
5:35 PM 82.8 °F - N/A% 30.03 in 10.0 mi North - - N/A   Clear
5:55 PM 82.8 °F - N/A% 30.03 in 10.0 mi SW 13.8 mph - N/A   Clear
6:15 PM 82.4 °F - N/A% 30.03 in 10.0 mi SW 8.1 mph 20.7 mph N/A   Clear
6:35 PM 81.5 °F - N/A% 30.03 in 10.0 mi North - - N/A   Clear
6:55 PM 80.2 °F - N/A% 30.04 in 10.0 mi North - - N/A   Clear
7:15 PM 79.2 °F - N/A% 30.04 in 10.0 mi North - - N/A   Clear
7:35 PM 78.3 °F - N/A% 30.04 in 10.0 mi North - - N/A   Clear
7:55 PM 76.1 °F - N/A% 30.04 in 10.0 mi North - - N/A   Scattered Clouds
8:15 PM 73.9 °F - N/A% 30.04 in 10.0 mi SW 9.2 mph - N/A   Scattered Clouds
8:35 PM 72.9 °F - N/A% 30.04 in 10.0 mi North - - N/A   Clear
8:55 PM 71.4 °F - N/A% 30.05 in 10.0 mi North - - N/A   Clear
9:15 PM 70.5 °F - N/A% 30.05 in 10.0 mi North - - N/A   Clear
9:35 PM 69.8 °F - N/A% 30.06 in 10.0 mi North - - N/A   Clear
9:55 PM 68.9 °F - N/A% 30.06 in 10.0 mi North - - N/A   Clear
10:15 PM 67.6 °F - N/A% 30.07 in 10.0 mi North - - N/A   Clear
10:35 PM 66.4 °F - N/A% 30.07 in 10.0 mi North - - N/A   Clear
11:15 PM 62.1 °F - N/A% 30.08 in 10.0 mi North - - N/A   Clear
11:35 PM 59.7 °F - N/A% 30.07 in 10.0 mi North - - N/A   Clear
11:55 PM 59.5 °F - N/A% 30.07 in 10.0 mi North - - N/A   Clear